Weather History for OEDR - July, 2013

Change the Weather History Date:

Friday, July 19, 2013

  Actual Average Record
Temperature  
Mean Temperature 97 °F -  
Max Temperature 107 °F 107 °F 118 °F (2008)
Min Temperature 87 °F 83 °F 82 °F (2004)
Cooling Degree Days 32    
Growing Degree Days 47 (Base 50)    
Moisture  
Dew Point 84 °F    
Average Humidity 69    
Maximum Humidity 95    
Minimum Humidity 36    
Precipitation  
Precipitation 0.00 in 0.00 in - ()
Sea Level Pressure  
Sea Level Pressure 29.30 in    
Wind  
Wind Speed 3 mph ()    
Max Wind Speed 12 mph    
Max Gust Speed -    
Visibility 4.1 miles    
Events      
Averages and records for this station are not official NWS values.
T = Trace of Precipitation, MM = Missing Value Source: Averaged Metar Reports

Daily Weather History Graph

Daily Weather History Graph

Search for Another Location

Airport or City:

Trip Planner

Search our weather history database for the weather conditions in past years. The results will help you decide how hot, cold, wet, or windy it might be!

Date:

Astronomy

Jul. 19, 2013 Rise Set
Actual Time 4:58 AM AST 6:32 PM AST
Civil Twilight 4:32 AM AST 6:58 PM AST
Nautical Twilight 4:02 AM AST 7:28 PM AST
Astronomical Twilight 3:30 AM AST 8:00 PM AST
Moon 3:11 PM AST (7/19) 1:15 AM AST (7/19)
Length of Visible Light 14h 25m
Length of Day
13h 34m
Waxing Gibbous, 84% of the Moon is Illuminated
Jul 19
Waxing Gibbous
Jul 22
Full
Jul 29
Last Quarter
Aug 7
New
Aug 14
First Quarter

Hourly Weather History & Observations

Time (AST) Temp. Heat Index Dew Point Humidity Pressure Visibility Wind Dir Wind Speed Gust Speed Precip Events Conditions
12:00 AM 91 °F - 88 °F 88% 29.32 in 5 mi Calm Calm - -   Haze
12:00 AM 91.4 °F 127.3 °F 87.8 °F 89% 29.33 in 5.0 mi Calm Calm - N/A   Clear
1:00 AM 91.4 °F 122.4 °F 86.0 °F 84% 29.30 in 5.0 mi Calm Calm - N/A   Clear
2:00 AM 89.6 °F 123.7 °F 87.8 °F 94% 29.30 in - NNW 2.3 mph - N/A   Clear
3:00 AM 89 °F - 86 °F 88% 29.31 in 6 mi WNW 3.5 mph - -  
3:00 AM 87.8 °F 115.4 °F 86.0 °F 94% 29.30 in - WNW 3.5 mph - N/A   Clear
4:00 AM 89.6 °F 123.7 °F 87.8 °F 94% 29.30 in - WNW 3.5 mph - N/A   Clear
5:00 AM 89.6 °F 119.2 °F 86.0 °F 89% 29.33 in 5.0 mi Calm Calm - N/A   Clear
6:00 AM 89 °F - 88 °F 95% 29.34 in 5 mi Calm Calm - -   Mist
6:00 AM 89.6 °F 123.7 °F 87.8 °F 94% 29.33 in 5.0 mi Calm Calm - N/A   Unknown
7:00 AM 93.2 °F 142.1 °F 91.4 °F 94% 29.33 in 5.0 mi South 3.5 mph - N/A   Unknown
8:00 AM 96.8 °F 147.7 °F 91.4 °F 84% 29.33 in 5.0 mi SW 3.5 mph - N/A   Partly Cloudy
9:00 AM 100 °F - 90 °F 66% 29.34 in 5 mi WSW 3.5 mph - -   Haze
9:00 AM 100.4 °F 146.0 °F 89.6 °F 71% 29.33 in 5.0 mi WSW 3.5 mph - N/A   Clear
10:00 AM 100.4 °F 136.1 °F 86.0 °F 64% 29.33 in 5.0 mi WSW 3.5 mph - N/A   Clear
11:00 AM 104.0 °F 128.0 °F 80.6 °F 48% 29.30 in 3.1 mi East 9.2 mph - N/A   Clear
12:00 PM 106 °F - 81 °F 36% 29.31 in 3 mi East 8.1 mph - -   Widespread Dust
12:00 PM 105.8 °F 129.8 °F 80.6 °F 45% 29.30 in 3.1 mi East 8.1 mph - N/A   Clear
1:00 PM 104.0 °F 128.0 °F 80.6 °F 48% 29.27 in 2.5 mi ENE 8.1 mph - N/A   Clear
2:00 PM 105.8 °F 129.8 °F 80.6 °F 45% 29.27 in 2.5 mi SE 5.8 mph - N/A   Haze
3:00 PM 107 °F - 82 °F 38% 29.25 in 2 mi NNE 6.9 mph - -   Haze
3:00 PM 107.6 °F 135.4 °F 82.4 °F 45% 29.24 in 2.2 mi NNE 6.9 mph - N/A   Haze
4:00 PM 104.0 °F 131.9 °F 82.4 °F 51% 29.24 in 2.2 mi NNE 11.5 mph - N/A   Haze
5:00 PM 102.2 °F 121.5 °F 78.8 °F 47% 29.24 in 2.2 mi NNE 9.2 mph - N/A   Haze
6:00 PM 99 °F - 77 °F 41% 29.25 in 3 mi NE 11.5 mph - -   Haze
6:00 PM 98.6 °F 114.4 °F 77.0 °F 50% 29.24 in 3.1 mi NE 11.5 mph - N/A   Haze
7:00 PM 96.8 °F 121.7 °F 82.4 °F 63% 29.27 in 4.3 mi NNE 6.9 mph - N/A   Clear
8:00 PM 95.0 °F 119.6 °F 82.4 °F 67% 29.27 in 4.3 mi Variable 2.3 mph - N/A   Clear
9:00 PM 93 °F - 82 °F 65% 29.29 in 5 mi Calm Calm - -   Haze
9:00 PM 93.2 °F 117.1 °F 82.4 °F 71% 29.30 in 5.0 mi Calm Calm - N/A   Clear
10:00 PM 93.2 °F 124.9 °F 86.0 °F 79% 29.30 in 5.0 mi Calm Calm - N/A   Clear
11:00 PM 91.4 °F 122.4 °F 86.0 °F 84% 29.30 in 4.3 mi Variable 3.5 mph - N/A   Clear